GFSNGP_500_rhum_135.txt.gz
RH
23 49 100 100 99 21 11 9 16 16 24 68 66 59 59 82 100 94 98 86 93 97 100 100 97 100 100 92 100 98 63 82 86 88 100 66 41 68 75 85 66 80 98 99
25 18 54 60 8 13 14 21 29 16 74 68 59 76 92 100 98 97 95 91 97 95 98 100 100 100 100 100 100 85 100 100 96 98 100 90 100 100 52 41 90 82 59 79
17 14 8 6 15 14 22 30 27 56 91 84 82 99 100 98 98 99 92 93 83 78 86 98 95 96 98 100 100 100 100 100 100 98 99 100 100 84 65 81 89 96 100 96
18 17 9 19 25 31 27 33 46 95 100 96 100 100 100 99 98 98 91 79 43 22 36 40 83 88 95 93 92 94 96 97 100 100 100 100 100 100 99 98 100 100 100 100
21 9 12 21 20 31 41 38 81 100 99 100 100 100 97 99 100 99 74 47 25 22 26 33 35 44 53 65 73 55 84 92 92 84 68 74 87 95 100 100 91 83 74 54
8 7 11 18 13 20 46 53 62 71 82 87 91 100 100 100 100 98 47 22 34 44 42 33 14 8 8 9 9 15 8 7 14 27 34 34 36 29 20 14 21 34 38 31
4 4 4 5 6 8 23 42 50 58 77 75 98 99 100 100 100 100 42 40 49 44 20 9 7 7 7 6 6 7 7 8 10 11 12 11 11 10 10 9 9 10 8 9
4 4 6 11 12 17 29 46 62 75 80 92 98 100 100 100 100 91 57 58 48 19 9 8 8 8 7 7 7 7 9 10 13 14 14 13 11 9 7 5 4 4 4 4
6 6 5 5 5 8 14 18 34 48 64 91 100 100 100 100 100 79 58 51 46 14 9 10 9 8 8 8 9 10 11 13 14 10 8 8 7 6 5 4 5 7 10 11
5 6 5 5 6 6 9 13 24 46 92 100 100 100 100 100 100 88 72 59 38 13 11 11 9 9 9 9 8 12 14 13 8 6 6 6 7 8 9 9 10 10 10 9
5 5 5 6 7 10 13 22 55 88 100 100 100 100 100 100 100 100 98 64 28 13 13 12 10 10 10 10 10 11 10 9 7 8 9 11 14 16 16 15 15 14 13 12
5 5 5 6 8 10 12 23 72 95 100 100 100 100 100 100 100 100 98 58 22 14 14 14 16 14 11 10 11 12 14 16 19 21 22 20 20 19 17 16 15 15 16 16
5 5 6 8 8 6 9 32 74 100 100 100 100 100 100 100 100 100 100 84 20 16 16 20 20 18 15 16 18 17 18 20 21 20 20 20 21 21 22 20 20 20 19 18
4 5 10 13 13 12 8 21 55 76 96 100 100 100 100 100 100 100 96 45 20 18 22 27 27 31 32 24 22 23 24 24 24 25 27 27 25 25 23 23 22 20 20 19
4 7 15 17 18 21 20 12 45 83 98 95 100 100 100 100 100 93 53 27 25 27 28 31 36 44 36 30 32 32 32 34 35 35 36 35 32 30 27 24 23 23 22 24
6 10 17 19 19 20 25 22 19 74 100 100 87 98 94 100 65 45 36 35 38 37 40 42 50 42 42 40 38 40 43 47 47 42 39 34 31 29 28 28 30 32 30 26
8 11 16 21 25 28 29 27 23 43 85 100 100 84 64 58 66 46 49 63 55 54 66 52 49 52 52 51 50 53 58 56 50 44 37 32 30 30 32 35 38 36 30 23
9 11 14 17 22 23 22 23 28 32 61 77 93 100 100 100 92 91 100 100 87 64 56 60 66 66 62 61 61 61 60 57 50 43 37 34 33 34 36 43 42 38 31 24
10 10 11 17 27 32 38 35 33 39 63 89 100 99 100 100 100 100 99 92 73 65 73 79 78 71 65 64 63 62 59 52 43 39 37 35 36 37 49 52 46 36 30 27
9 13 36 31 28 30 46 59 49 60 97 100 100 100 100 93 100 100 100 89 76 76 75 73 62 60 62 63 64 60 53 43 38 37 38 38 42 58 58 51 41 36 32 31
12 24 43 27 23 25 37 56 58 66 100 100 100 100 100 94 91 95 95 69 59 70 79 65 59 57 60 64 58 49 42 38 39 43 43 52 65 62 53 46 40 36 31 19
14 29 46 30 17 17 24 35 42 46 81 100 100 100 100 100 100 84 77 92 98 93 88 67 55 61 59 51 47 47 46 47 50 48 62 70 64 54 47 41 36 28 16 12
15 24 39 49 31 35 39 30 29 33 49 77 94 100 94 96 100 100 100 99 93 84 65 57 58 53 52 56 57 56 57 58 59 69 74 69 60 53 46 38 24 14 12 19
15 16 27 36 49 46 45 50 52 48 55 79 90 91 95 96 90 86 72 62 56 58 60 57 65 71 71 70 67 69 72 73 80 80 75 65 54 48 36 20 13 15 23 23
16 15 17 23 33 46 51 52 60 66 70 74 79 85 90 88 71 59 58 59 64 68 85 93 87 85 80 76 79 86 89 91 88 77 63 55 48 33 18 14 21 25 23 19
16 16 17 19 19 22 27 55 66 58 60 66 69 69 66 66 70 74 77 85 93 97 94 89 86 81 83 90 95 93 88 83 73 65 58 46 27 15 17 24 26 23 20 21
18 18 19 22 23 24 21 23 40 76 95 100 100 100 100 100 100 100 100 100 100 98 97 92 88 90 96 99 96 95 93 78 67 59 39 21 14 21 27 26 22 21 25 29

GFSNGP_500_rhum_138.txt.gz
RH
100 100 100 100 100 97 96 100 97 18 16 42 26 48 61 54 48 83 100 97 92 83 84 100 99 91 78 89 99 98 86 97 78 97 100 87 71 84 100 98 82 39 63 75
100 100 100 100 100 98 100 100 58 14 16 35 54 61 50 69 97 100 100 92 93 85 71 100 97 100 100 97 100 100 100 100 87 96 100 100 96 99 100 97 99 86 57 42
100 100 86 66 87 95 85 19 16 28 40 30 48 70 79 98 98 100 96 90 90 58 34 54 89 95 99 100 100 100 100 100 100 100 100 100 100 100 100 100 83 67 57 62
85 71 30 19 21 16 13 18 33 42 63 40 58 86 100 100 99 100 95 88 69 22 24 27 36 61 89 96 67 92 98 99 97 97 98 96 99 100 100 100 100 100 100 100
98 62 32 13 16 25 37 51 60 63 58 80 84 98 100 100 99 100 100 91 45 26 28 35 39 36 42 37 64 24 26 23 17 26 28 36 41 58 75 54 53 52 65 70
79 34 16 18 15 20 21 36 50 54 48 52 68 90 97 100 100 100 100 93 29 29 41 44 30 8 7 6 6 7 7 8 10 12 12 13 11 10 9 7 6 6 8 11
33 8 4 5 5 6 10 16 17 21 34 47 49 66 80 100 100 100 100 89 36 39 48 37 11 7 7 6 6 7 7 9 10 14 17 18 19 17 15 12 9 7 6 5
4 4 4 7 8 10 12 14 16 16 20 34 53 80 85 100 100 100 100 98 63 54 48 17 8 8 8 7 6 6 7 9 13 14 13 13 13 14 11 10 9 8 6 6
6 6 6 6 5 5 5 5 6 6 6 10 32 71 95 100 100 100 100 100 95 76 48 14 10 10 8 7 7 7 7 12 13 14 14 12 12 12 11 9 7 6 6 6
7 8 6 5 6 5 4 4 6 7 9 18 52 97 100 100 100 100 100 100 100 99 58 18 13 12 9 8 8 8 11 13 12 14 14 10 9 8 8 9 10 10 10 11
6 6 6 6 5 5 5 6 7 10 12 37 97 100 100 100 100 100 100 100 100 100 73 24 16 13 12 11 11 11 11 12 12 12 11 11 11 10 11 14 16 15 15 15
7 6 6 5 4 5 7 8 7 8 16 76 98 97 100 100 100 100 100 100 100 100 98 42 18 19 17 19 18 16 15 16 15 14 15 16 16 16 18 18 17 18 18 17
7 6 5 4 4 6 10 12 9 8 40 74 98 100 100 100 100 100 100 100 100 100 96 42 24 24 25 28 27 27 26 28 26 24 22 23 25 28 28 27 26 25 23 19
6 5 4 4 5 7 12 16 17 11 14 67 96 100 100 100 100 100 100 100 100 100 86 45 36 34 36 41 41 38 35 36 35 32 28 30 33 33 31 31 28 26 24 25
5 4 4 4 6 9 16 18 20 20 16 49 80 98 100 100 100 100 100 100 100 100 84 47 45 46 52 53 50 52 48 40 38 35 32 36 40 39 36 34 31 28 28 26
5 4 4 5 6 10 17 22 26 27 23 44 97 100 93 99 100 100 100 100 94 76 66 60 54 61 74 60 75 62 55 50 47 44 40 47 48 45 43 38 34 31 26 22
5 4 4 6 7 11 17 24 27 30 27 35 84 98 100 96 91 96 100 78 71 67 60 68 89 89 91 84 71 68 68 63 59 55 56 53 50 48 40 33 29 26 24 22
5 4 5 6 8 9 15 18 20 23 27 35 61 81 85 99 100 100 96 97 90 98 100 100 99 93 86 80 78 78 75 69 65 60 57 57 52 44 34 29 26 26 27 29
4 5 6 7 14 16 15 17 25 46 37 36 60 94 100 100 100 100 100 100 100 100 100 100 100 98 93 80 74 70 66 64 61 60 58 50 40 34 31 30 32 34 40 44
5 5 6 12 16 15 16 20 22 34 52 44 69 90 100 99 96 93 93 100 100 100 100 100 97 79 70 78 84 81 74 67 61 53 45 40 39 38 38 42 46 54 50 32
5 6 7 14 22 18 15 16 17 25 40 48 68 96 99 96 100 100 99 99 90 92 92 87 87 96 100 100 92 87 77 58 53 50 50 50 48 52 59 64 65 53 36 34
6 7 9 11 29 30 23 31 35 26 29 39 45 77 99 100 100 100 100 100 100 100 97 100 100 99 87 83 80 72 62 68 67 65 61 58 66 73 73 70 56 44 42 39
7 8 9 11 13 25 37 39 42 48 42 36 38 54 75 97 100 100 100 100 100 100 100 100 82 78 79 80 77 85 87 84 76 70 71 79 80 77 74 60 51 46 36 20
9 10 11 12 13 15 18 23 43 52 56 61 59 55 64 86 100 100 100 100 100 100 88 78 87 96 98 98 98 96 89 81 75 81 88 89 87 78 64 55 48 29 14 12
11 12 12 13 14 15 16 17 19 32 56 65 69 77 84 90 97 100 100 96 85 91 98 100 100 100 100 100 98 91 86 85 92 97 93 89 80 70 60 43 20 11 15 18
14 16 17 18 18 19 20 21 22 24 27 31 50 78 94 100 100 100 100 100 100 100 100 100 100 100 99 98 98 97 96 97 96 92 90 84 73 58 32 13 12 19 16 15
17 18 21 22 23 24 26 28 29 30 31 32 35 38 41 43 46 54 66 79 84 85 86 89 92 94 97 98 97 97 98 99 97 97 88 71 46 20 11 16 21 15 18 25

GFSNGP_500_rhum_141.txt.gz
RH
100 89 100 99 94 97 99 100 100 88 98 99 64 14 26 37 60 47 36 43 89 99 97 77 71 92 100 92 73 92 95 100 100 98 94 86 81 98 100 87 98 97 99 98
93 100 100 100 96 100 100 100 100 99 97 91 31 18 22 65 65 54 61 89 98 100 92 54 60 93 100 100 100 100 100 100 100 100 100 100 100 100 99 95 79 100 100 90
100 100 100 94 87 100 100 100 99 76 77 23 25 30 47 88 84 84 86 93 100 100 84 27 36 48 94 95 100 100 100 100 100 100 100 100 100 100 100 100 100 100 100 100
100 100 95 99 100 99 97 92 81 36 16 36 50 49 38 81 93 95 97 97 94 96 58 26 27 33 43 91 76 79 70 45 23 20 73 75 53 92 98 80 89 100 100 100
100 99 93 100 63 31 22 18 18 33 48 62 49 50 72 59 83 100 100 100 100 95 55 30 30 38 35 18 88 22 17 9 7 6 7 9 26 9 8 34 30 14 31 34
100 96 99 82 31 18 19 35 48 37 39 38 40 56 50 65 76 89 98 100 100 100 59 33 42 44 20 8 8 8 6 7 6 8 10 12 12 11 10 9 9 9 8 7
96 98 63 29 24 20 20 19 14 13 11 13 17 30 39 54 60 79 98 100 100 100 91 43 50 42 13 8 7 6 6 7 6 9 13 14 15 14 13 12 11 10 9 8
99 88 17 11 8 7 9 12 9 6 5 5 5 5 9 38 87 94 100 100 100 100 100 80 62 42 14 9 8 7 6 7 8 12 14 14 15 15 15 16 15 13 10 10
100 31 6 5 6 9 7 6 5 5 4 4 5 6 8 22 89 100 100 100 100 100 100 100 92 56 18 12 11 8 7 7 9 13 14 16 18 18 18 16 14 12 10 10
12 11 7 7 6 6 6 5 4 4 4 5 7 9 18 49 97 100 100 100 100 100 100 100 100 85 22 15 12 13 13 12 13 13 13 14 15 14 14 13 12 10 8 8
18 10 7 6 6 6 5 4 4 4 6 7 7 12 44 98 100 100 100 100 100 100 100 100 100 98 32 17 16 18 22 18 14 15 17 18 18 18 18 18 16 14 15 17
10 8 7 6 6 5 4 4 4 6 9 10 8 17 89 100 98 100 100 100 100 100 100 100 100 100 69 26 26 25 28 29 26 24 22 20 17 15 17 17 18 21 23 25
7 7 7 6 6 5 4 4 4 6 10 13 11 20 75 100 96 100 100 100 100 100 100 100 100 100 98 56 38 37 39 40 37 32 33 32 30 30 28 23 24 24 25 25
7 7 7 6 5 4 4 4 5 7 13 16 17 20 76 96 100 100 100 100 100 100 100 100 100 100 97 68 53 49 53 56 51 67 58 59 41 41 39 38 36 37 37 36
8 7 7 6 5 4 4 4 6 8 14 19 23 17 60 90 99 100 100 100 100 100 100 100 100 100 100 94 76 64 65 88 94 90 90 67 59 56 48 41 38 40 41 38
7 7 6 6 5 4 4 5 6 8 14 23 28 25 29 85 97 99 100 100 100 100 98 98 100 100 100 98 97 94 99 99 100 96 88 80 73 64 57 53 48 45 44 43
7 7 6 5 4 4 4 6 10 12 16 19 23 27 36 92 97 100 100 100 100 100 95 99 99 100 100 92 95 100 100 100 100 99 88 75 74 70 64 60 56 51 46 41
7 6 6 5 5 5 6 8 12 14 15 26 33 30 31 50 87 97 100 100 100 100 100 94 89 94 99 100 100 100 100 99 97 90 88 82 76 72 69 62 53 46 41 38
6 6 5 5 5 5 8 9 14 18 19 19 37 42 36 49 81 100 100 100 100 100 100 100 100 100 100 100 100 100 98 92 92 95 97 90 80 71 62 52 46 45 43 41
6 6 5 5 5 5 7 10 13 16 19 20 25 36 43 50 74 93 99 98 94 90 91 92 95 99 99 100 95 94 99 100 100 93 88 82 74 67 62 59 59 54 49 51
6 5 5 5 5 6 6 11 16 18 29 29 22 27 37 49 70 94 100 100 100 100 100 100 100 100 100 100 99 100 100 98 91 90 94 87 82 79 76 74 70 66 66 66
6 7 6 6 7 7 8 8 15 24 28 37 42 37 34 38 49 75 94 92 94 98 100 100 100 100 100 100 100 100 96 96 99 99 95 94 93 90 86 79 76 78 80 78
7 7 7 8 9 10 10 10 11 12 15 30 41 48 54 51 48 53 72 84 97 100 100 100 100 100 100 100 99 100 100 100 100 100 100 100 96 87 83 84 88 88 84 69
9 9 9 10 11 12 13 14 14 14 15 16 23 36 52 64 75 84 88 91 98 100 100 100 100 100 100 100 100 100 100 100 100 98 94 91 91 91 95 97 94 86 63 35
12 11 11 11 13 15 17 19 20 21 22 22 22 25 30 36 53 74 90 96 98 99 100 100 100 100 99 95 84 81 85 93 98 98 100 99 98 99 98 94 77 45 18 10
16 15 16 16 17 19 21 23 24 26 28 30 30 32 34 36 40 46 53 54 55 56 56 58 62 63 62 59 65 74 86 98 100 100 100 100 100 100 87 52 23 11 12 20
37 29 24 23 22 24 26 27 26 27 29 33 38 41 43 49 68 78 81 87 90 80 62 54 52 52 55 62 74 83 97 100 100 100 100 100 92 57 23 12 12 18 24 20

GFSNGP_500_rhum_147.txt.gz
RH
22 19 45 43 92 86 99 100 96 88 82 100 87 94 100 90 100 100 96 37 22 46 55 51 66 78 92 91 50 76 85 94 90 69 65 76 75 91 79 100 96 100 100 100
32 43 47 30 52 96 99 100 100 100 82 96 98 90 91 98 100 94 35 23 34 80 74 75 84 88 100 78 38 66 100 100 100 100 100 100 99 100 100 100 92 83 90 99
19 49 61 36 90 93 91 98 100 97 100 91 98 98 98 99 68 31 28 24 64 93 100 100 98 100 100 70 28 39 96 90 43 71 86 86 100 100 100 100 98 96 93 98
26 43 30 40 78 86 79 82 84 79 92 98 94 100 68 31 23 34 29 26 41 63 88 100 100 100 100 87 33 33 51 84 37 9 34 95 69 94 96 75 83 64 40 38
28 17 67 79 98 99 100 100 90 97 100 96 62 26 24 29 22 19 23 28 27 30 56 100 100 100 100 100 88 40 43 52 63 27 8 14 53 35 16 52 35 32 48 32
25 89 85 96 100 100 99 99 83 56 36 24 23 15 10 8 8 7 6 6 9 29 60 100 100 100 100 100 100 98 63 36 28 45 8 7 8 10 11 9 9 10 9 8
77 97 91 100 100 100 73 55 47 34 18 10 9 6 4 4 4 4 4 4 6 23 86 100 100 100 100 100 100 100 100 94 22 11 10 8 9 10 11 11 10 9 9 10
90 93 84 95 92 82 67 16 8 10 8 6 4 4 4 3 3 4 5 6 8 11 48 100 100 100 100 100 100 100 100 100 97 20 13 11 12 13 13 13 15 16 17 15
90 88 96 98 97 74 69 9 8 6 5 4 4 3 3 3 3 4 6 7 10 22 47 100 100 100 100 100 100 100 100 100 100 94 19 16 17 17 18 18 19 18 19 23
81 100 96 96 94 78 13 9 6 5 4 4 3 3 3 4 4 5 7 10 64 90 100 100 100 100 100 100 100 100 100 100 99 100 92 35 27 28 28 25 21 22 23 25
85 96 91 97 68 16 9 7 6 4 4 4 3 4 4 4 5 6 10 15 52 98 100 96 92 99 100 100 100 100 100 100 100 99 84 73 57 43 40 34 33 32 33 34
95 92 95 88 28 12 7 6 5 4 4 4 4 4 4 5 7 8 13 14 54 70 95 86 81 97 100 100 100 100 100 100 100 100 92 74 65 65 67 53 48 49 55 56
95 100 84 32 11 7 6 5 5 5 4 4 4 4 4 5 6 9 15 15 42 83 91 87 87 100 100 100 100 100 100 100 100 100 100 99 94 87 81 72 63 68 84 88
100 54 16 8 7 7 6 6 6 5 5 4 4 4 4 5 5 8 14 18 25 56 74 83 89 98 100 100 100 100 100 100 100 100 100 100 100 100 98 96 96 96 92 88
56 11 8 7 7 6 6 6 6 5 5 5 5 5 5 6 6 8 12 18 22 41 64 74 85 95 99 100 100 100 100 100 100 100 100 100 100 100 100 99 98 92 86 77
17 8 8 7 7 6 6 7 7 6 6 5 6 5 5 6 7 8 10 14 18 21 38 72 89 95 99 100 100 100 100 100 100 100 100 100 100 99 96 97 92 85 81 80
11 10 10 8 8 7 6 7 7 7 7 6 6 6 6 7 8 9 11 15 20 24 26 39 58 67 80 83 86 99 100 99 100 100 100 100 100 100 100 96 83 71 67 69
12 54 69 47 18 20 10 10 9 7 7 6 6 7 7 7 9 13 16 18 20 24 29 33 44 61 66 77 83 91 97 98 99 99 100 100 100 96 86 84 81 82 86 82
12 14 12 15 12 9 8 8 10 12 10 9 8 7 9 10 12 15 18 22 26 28 35 41 54 69 87 94 97 98 98 99 100 100 100 100 98 95 94 94 94 93 92 88
20 24 17 16 17 9 6 7 15 22 20 21 15 12 10 10 12 16 20 28 32 35 38 46 60 74 95 100 100 100 100 100 100 100 100 100 100 95 92 93 94 91 81 64
50 54 52 50 40 12 8 9 10 28 29 26 18 18 17 15 13 14 17 24 33 42 50 53 59 72 90 100 100 100 100 100 100 100 98 100 100 100 97 80 63 54 48 44
47 59 69 53 15 10 11 11 11 20 25 18 16 18 18 18 18 18 18 19 23 32 46 61 73 87 98 100 100 100 100 97 89 84 78 74 68 62 58 53 49 46 53 67
94 71 50 20 16 16 12 11 13 12 17 24 25 22 21 22 25 26 27 27 28 29 33 43 63 98 100 97 89 82 81 88 98 100 97 96 84 68 59 56 61 81 91 92
75 55 59 42 32 47 38 17 14 16 21 28 31 25 28 32 33 30 32 33 36 44 53 59 65 71 80 93 100 100 100 100 100 93 91 88 77 72 78 91 95 97 99 92
99 86 70 52 52 52 27 22 23 32 49 54 45 42 53 42 36 28 26 29 32 35 47 76 97 100 100 100 100 100 96 85 87 88 84 85 94 97 97 100 99 77 35 15
71 92 89 70 48 37 41 67 88 84 76 70 74 62 40 32 32 33 29 28 32 35 39 47 59 67 75 81 83 83 85 85 88 95 98 98 100 100 93 56 22 14 14 15
97 91 83 80 84 92 96 98 98 98 92 71 48 41 38 33 23 25 33 35 34 36 43 57 72 81 83 81 80 84 96 100 100 100 100 100 77 35 17 15 15 16 22 30

GFSNGP_500_rhum_150.txt.gz
RH
8 10 27 22 18 32 46 77 84 59 83 83 85 84 75 68 73 89 100 99 100 74 28 30 68 77 76 88 100 89 54 70 91 96 98 100 100 100 100 95 97 94 85 80
5 18 14 27 40 60 50 49 85 98 87 90 90 82 83 78 91 82 82 100 54 32 34 58 80 90 97 100 100 91 47 59 99 72 64 90 95 100 100 100 100 97 96 98
4 6 19 23 34 50 60 77 90 85 77 70 77 94 98 98 88 100 91 28 34 38 30 41 84 96 100 100 100 96 45 43 72 81 36 25 92 98 100 88 41 49 70 84
5 8 42 30 28 40 52 89 78 74 85 92 91 98 99 94 81 30 29 28 33 30 24 30 47 89 100 100 100 100 83 46 46 78 73 50 15 90 83 93 86 86 35 13
7 25 43 38 30 94 98 83 94 98 96 99 99 96 52 28 24 16 11 9 8 10 15 28 50 78 100 100 100 100 100 96 64 43 47 63 38 9 32 12 23 11 12 18
31 60 49 19 69 100 93 100 99 82 61 48 32 26 17 9 6 4 4 4 4 4 5 10 43 94 100 100 100 100 100 100 100 85 45 18 24 9 8 9 10 10 10 10
53 61 35 74 99 99 98 97 61 30 27 13 11 8 5 4 4 4 3 3 4 4 6 8 16 66 100 100 100 100 100 100 100 100 100 68 16 12 10 11 12 12 12 12
59 70 73 98 98 90 95 57 51 10 10 8 5 4 4 4 4 3 4 4 4 5 6 9 16 39 100 100 100 100 100 100 100 100 100 100 76 17 14 15 14 14 17 17
77 82 96 96 99 95 85 73 27 9 6 5 4 4 4 4 4 4 4 4 5 7 9 30 51 82 97 94 100 100 100 100 100 100 100 100 100 83 31 23 21 20 18 18
80 91 95 88 91 87 88 38 10 7 5 4 4 4 4 4 4 4 4 5 6 9 17 61 79 82 94 98 90 100 100 100 100 100 100 100 100 100 99 69 44 33 28 25
82 82 83 89 89 94 65 13 7 6 4 4 4 4 4 4 4 4 4 5 6 10 17 40 80 85 94 89 91 99 100 100 100 100 100 100 99 98 99 97 91 86 74 57
100 100 100 100 94 93 35 11 6 5 4 4 4 4 4 5 5 4 4 5 6 11 17 48 62 84 78 76 86 94 98 100 100 100 100 100 100 100 97 94 89 82 80 80
100 100 100 100 100 81 19 7 6 5 5 4 4 5 5 5 5 5 5 6 6 9 13 27 62 81 83 81 82 89 100 100 99 97 100 100 100 100 100 100 98 98 97 96
100 100 100 98 50 13 7 6 5 5 5 5 5 5 5 6 6 6 6 6 7 9 13 16 26 51 61 68 76 85 88 90 95 100 100 100 100 100 98 98 99 98 97 92
100 100 99 32 8 7 7 6 6 6 6 6 5 6 6 6 7 6 7 7 7 9 11 14 16 20 30 45 61 73 85 95 99 100 100 100 100 100 100 99 98 94 88 82
100 100 59 9 8 7 7 6 6 7 7 7 7 7 6 6 7 8 8 8 8 9 13 16 19 22 30 44 55 69 87 91 94 100 100 100 99 98 100 100 100 99 87 78
100 99 26 8 8 8 7 7 9 10 9 10 8 10 9 7 8 9 10 10 12 15 18 20 23 25 30 41 59 68 75 85 87 92 99 100 100 100 100 100 88 81 77 72
72 18 11 36 54 43 28 32 16 8 14 10 12 11 9 8 9 9 10 12 15 20 25 29 30 33 42 57 79 96 100 100 100 100 100 100 100 100 100 95 91 83 81 77
10 10 16 18 10 11 13 17 28 9 7 12 10 13 16 15 14 14 12 13 16 25 29 33 37 40 45 59 74 92 100 100 100 100 100 100 100 99 94 89 87 86 80 72
8 8 9 11 14 18 22 32 15 7 10 10 13 16 18 18 23 23 17 15 16 17 21 30 37 47 58 68 76 87 100 100 100 100 100 100 99 97 93 88 86 89 87 82
10 13 24 40 50 54 48 22 11 8 8 11 11 13 15 17 18 18 19 20 24 24 24 26 29 33 43 56 78 99 100 100 100 100 100 100 100 99 100 100 93 76 72 72
24 38 45 40 54 69 46 18 16 18 12 11 12 13 19 29 36 31 26 32 32 32 33 33 35 38 42 48 54 62 82 98 100 100 100 100 100 100 92 78 75 77 77 78
86 91 95 94 77 61 48 26 35 47 41 24 14 18 29 49 56 49 49 52 44 36 31 30 30 32 37 50 66 82 91 97 100 100 100 95 87 85 85 87 89 96 99 97
83 98 98 76 62 67 71 57 57 60 41 28 28 47 77 77 68 76 69 51 37 34 31 26 29 33 34 39 47 58 66 74 80 84 86 88 90 94 100 100 100 99 98 85
98 100 99 90 76 80 88 74 57 45 46 70 90 92 91 92 87 66 47 40 31 22 29 38 41 42 43 47 53 58 67 76 80 84 91 99 100 100 100 100 96 63 26 18
100 89 75 83 95 92 82 81 87 93 96 96 97 96 93 79 58 42 34 23 22 37 47 47 45 48 55 62 70 72 76 90 100 100 100 100 100 99 80 38 20 20 20 20
96 95 98 97 94 92 94 98 98 98 97 96 97 89 69 50 38 28 22 31 45 49 53 66 88 96 97 98 99 100 100 100 100 100 100 91 53 24 20 22 23 24 23 24

GFSNGP_500_rhum_156.txt.gz
RH
10 11 14 23 23 21 44 41 36 80 56 27 33 42 26 22 32 41 60 76 80 66 72 80 100 100 94 34 36 97 100 100 100 100 100 100 74 83 100 81 25 39 99 64
19 20 26 25 17 30 40 12 6 15 19 37 65 64 56 45 37 25 33 75 84 71 87 92 100 70 36 51 58 54 75 100 100 100 100 100 91 57 76 82 66 22 40 80
23 27 24 16 24 32 12 20 7 13 25 82 98 57 28 54 90 82 86 91 85 95 100 73 28 35 42 40 38 40 46 63 98 100 100 100 100 92 58 46 47 42 14 26
29 23 20 25 34 11 8 30 38 75 97 31 36 96 100 93 100 100 98 92 100 64 25 17 11 8 5 4 5 10 22 46 82 100 100 100 100 100 100 65 23 18 17 14
22 39 36 26 15 22 96 94 100 64 24 82 100 100 98 98 100 100 98 82 26 10 5 3 3 3 4 4 5 6 10 24 56 100 99 99 100 100 100 100 98 54 32 23
55 65 40 22 73 100 100 89 43 32 98 100 96 88 96 80 42 28 14 6 4 3 3 3 3 4 4 5 6 7 13 25 65 85 94 99 100 100 100 100 100 100 95 74
85 77 39 46 80 100 97 50 49 94 100 95 57 38 17 25 10 5 4 3 3 4 4 4 4 4 5 5 7 10 40 48 79 88 92 95 98 100 100 100 100 100 99 86
83 73 31 47 12 29 60 81 96 100 100 66 48 13 9 6 4 3 4 4 4 4 4 5 5 5 5 6 11 18 38 64 70 78 91 89 92 97 100 99 100 100 100 100
83 61 89 81 98 87 74 58 100 100 89 62 28 9 6 4 4 4 4 4 5 6 6 6 6 5 6 6 12 21 29 50 62 70 86 85 91 97 98 100 100 100 100 100
78 57 86 96 84 81 61 94 100 100 91 63 12 7 5 4 4 4 5 5 6 6 7 7 7 7 6 7 10 20 35 47 55 71 79 78 78 78 82 89 97 100 99 98
88 52 71 80 83 95 100 100 95 100 90 27 10 6 4 4 4 4 5 6 7 7 7 7 7 7 7 8 8 15 24 44 60 70 76 72 72 76 84 90 93 98 100 100
100 100 99 100 100 100 100 100 98 100 84 19 8 6 5 4 4 5 5 6 6 8 8 8 7 7 7 8 10 14 27 49 63 73 78 79 79 76 84 90 93 95 97 98
70 88 96 100 100 98 100 96 100 99 71 14 7 5 5 5 5 5 6 8 7 8 10 10 9 9 8 8 10 13 17 24 35 46 53 58 61 75 94 86 88 90 86 88
98 99 100 100 96 95 100 100 100 96 39 7 6 5 5 5 6 6 12 12 9 8 9 11 10 10 10 11 12 13 17 20 22 22 26 32 36 42 45 58 77 85 87 80
98 97 100 100 99 99 100 100 76 23 8 7 6 6 6 7 10 22 12 11 13 13 10 10 11 12 13 15 18 22 25 26 27 29 31 35 42 50 62 74 79 77 73 82
100 100 100 100 100 100 100 82 10 8 7 6 6 6 7 10 16 18 10 8 12 23 18 13 17 14 16 18 22 26 31 34 35 41 48 51 61 67 75 84 89 94 96 100
99 97 100 100 100 100 100 45 10 8 7 6 6 11 26 12 8 9 9 9 15 28 30 21 27 20 17 18 20 20 23 28 30 32 42 54 59 62 71 87 100 100 100 100
100 100 99 100 100 100 92 25 8 9 10 16 39 30 15 16 10 7 12 12 10 13 17 22 25 28 27 25 30 33 33 32 35 39 40 39 41 46 63 83 92 92 91 92
98 99 100 100 100 100 52 11 20 37 24 15 10 13 25 38 20 8 9 14 13 13 14 23 55 60 39 38 45 49 45 44 42 34 32 34 46 56 56 59 64 67 68 67
99 100 100 100 78 30 12 12 22 12 16 24 30 68 59 35 36 36 24 14 20 24 18 43 78 75 62 70 69 50 46 36 24 23 30 39 42 44 46 51 62 72 79 88
100 100 46 16 14 10 10 9 12 27 26 35 72 82 40 26 51 68 62 45 27 26 56 83 84 87 86 64 53 42 24 21 30 40 45 50 54 59 63 69 78 80 86 93
47 25 13 12 11 11 12 19 35 52 73 86 81 80 60 62 70 66 54 51 69 87 89 92 93 78 64 50 31 23 27 40 46 49 62 84 96 97 96 98 99 99 100 100
14 14 15 17 19 23 38 74 87 87 87 84 82 83 81 76 72 76 82 86 88 92 96 92 79 63 43 29 26 34 47 62 74 90 93 96 100 100 100 100 96 95 95 79
43 38 44 71 89 90 84 89 89 90 86 81 82 80 80 81 83 81 83 86 90 96 89 75 58 41 28 30 36 54 76 87 94 98 100 100 100 100 95 95 90 66 34 19
93 94 96 97 91 91 95 93 87 77 80 82 84 84 86 86 86 87 86 92 97 91 82 60 40 27 29 38 47 75 93 96 99 100 100 100 97 96 91 68 32 19 15 15
100 100 100 100 100 100 99 93 90 86 85 87 89 89 89 91 92 93 95 99 96 80 56 33 25 28 38 54 81 98 100 99 100 98 98 98 97 82 47 24 16 16 20 22
100 100 100 100 100 98 95 91 88 87 89 94 94 93 94 96 96 98 100 96 76 46 27 26 36 50 77 95 98 100 100 99 100 100 100 98 70 36 20 16 20 24 25 23

GFSNGP_500_rhum_159.txt.gz
RH
8 9 10 12 10 12 12 16 23 20 21 41 47 58 65 32 37 75 86 57 36 27 28 36 62 62 71 97 100 67 45 48 61 91 100 100 100 100 100 100 83 70 72 53
32 19 15 18 17 20 23 27 26 19 26 28 8 14 17 32 100 98 48 67 66 55 48 68 72 84 98 66 38 38 43 44 43 51 59 77 100 99 98 100 100 83 43 33
41 30 29 29 28 29 26 30 34 22 16 12 9 20 72 96 84 83 79 88 88 81 79 82 90 79 27 17 8 5 4 5 6 9 32 78 98 100 97 100 100 100 64 32
39 33 26 26 35 36 29 28 14 11 46 74 54 44 45 75 75 81 88 99 91 86 83 66 21 8 4 3 3 3 3 4 4 7 12 27 98 97 100 100 100 100 100 88
38 34 30 25 68 44 26 32 20 39 100 90 34 63 83 100 89 91 95 88 76 50 17 6 3 3 3 4 4 4 5 6 12 16 32 59 82 95 87 98 100 100 100 100
54 48 34 64 70 44 71 52 99 85 78 39 56 97 84 82 75 67 30 14 6 4 3 3 4 4 4 4 5 5 6 9 20 44 36 60 73 86 90 90 93 91 100 100
75 65 60 68 62 49 81 99 100 84 69 94 92 97 63 25 18 15 6 4 3 4 4 4 5 6 6 6 6 6 7 13 32 45 37 46 67 82 84 86 87 81 87 98
100 83 52 64 54 56 81 63 54 75 85 99 100 95 51 12 7 5 4 3 4 5 6 7 7 7 7 6 6 6 6 16 26 39 51 55 61 74 76 78 91 90 87 90
99 93 67 68 92 100 100 98 95 63 72 95 100 83 25 7 5 4 4 4 5 6 7 8 8 7 7 7 7 7 8 12 25 38 49 54 64 75 78 75 74 83 97 98
94 78 72 84 88 96 99 69 72 78 93 94 100 85 16 7 4 4 4 4 5 7 8 8 8 8 8 7 7 7 8 10 14 24 39 53 66 80 85 86 84 85 87 92
91 100 88 92 92 75 95 97 97 92 92 90 100 69 12 7 5 4 4 4 5 6 6 7 10 9 10 9 8 8 8 9 10 13 20 48 70 71 81 81 80 81 80 81
96 100 100 91 81 82 99 99 96 93 84 85 98 56 11 6 5 4 4 5 6 6 13 11 10 14 14 12 11 10 11 10 11 14 17 20 31 43 44 44 44 50 61 70
100 100 100 100 94 96 100 100 92 98 93 89 91 48 9 6 5 5 5 5 6 27 23 18 17 12 12 12 12 11 12 14 16 17 19 25 29 32 37 38 42 48 51 59
92 82 79 88 93 93 97 92 95 100 97 99 95 41 7 6 5 6 6 8 30 32 19 31 35 27 13 21 27 19 17 19 23 22 26 28 30 39 46 51 58 60 66 72
80 80 88 98 96 87 99 98 95 98 95 67 51 8 7 6 6 7 8 20 38 30 12 9 18 43 36 36 46 40 30 22 23 26 28 29 30 33 36 40 44 47 48 56
86 99 95 92 93 96 100 96 97 98 86 11 8 8 6 6 6 7 14 12 10 11 9 10 10 21 33 45 56 49 38 39 32 35 43 44 43 49 51 48 42 37 38 43
96 94 97 96 97 100 100 100 98 99 59 9 8 7 6 7 27 37 28 32 26 8 15 26 14 12 13 26 57 73 63 40 49 59 62 57 59 55 40 31 32 36 38 37
100 100 100 100 100 100 99 96 100 99 32 9 11 13 20 32 16 15 38 53 39 15 10 13 15 19 25 24 61 80 63 70 83 78 64 54 38 24 24 31 39 44 47 48
100 100 100 100 100 100 100 100 100 68 12 16 22 14 12 19 34 68 63 40 50 59 38 30 35 27 25 60 83 86 89 84 60 53 38 24 24 30 40 44 50 62 77 82
100 100 100 100 100 100 100 99 43 12 13 14 13 26 39 48 74 78 42 30 60 73 66 46 44 64 84 89 92 92 82 72 50 32 25 30 40 48 63 86 94 90 91 94
100 100 100 100 99 59 34 16 12 11 12 14 31 51 72 82 81 75 65 72 69 68 68 76 86 88 93 95 87 77 61 43 31 27 32 51 67 84 92 96 96 94 96 98
68 98 97 62 17 13 12 12 13 16 31 61 78 86 87 84 82 82 78 76 80 82 83 84 87 92 93 84 74 60 43 28 28 34 47 77 94 98 98 94 92 96 100 95
19 17 21 16 14 15 18 20 41 76 91 93 92 92 89 84 84 84 82 84 84 84 82 83 91 93 87 77 64 44 27 28 37 47 74 98 99 96 97 97 97 98 96 78
47 23 19 22 27 46 81 94 92 93 98 97 89 80 81 86 87 86 86 85 87 87 87 91 94 92 83 66 40 26 29 40 60 90 99 98 96 99 100 100 99 95 63 31
96 97 98 98 98 99 100 98 99 100 100 94 89 90 88 91 89 90 92 92 89 88 90 93 92 81 58 32 28 35 50 84 98 96 96 95 99 100 99 100 92 53 28 20
100 100 100 100 100 100 100 100 100 100 99 97 93 93 93 94 92 90 88 88 87 89 91 92 75 45 29 30 46 81 97 96 95 95 98 100 100 100 100 89 54 31 21 22
100 100 100 100 100 100 100 100 100 100 97 96 97 96 94 91 87 88 85 88 93 94 88 61 36 30 37 70 96 96 94 94 97 98 100 99 100 100 89 62 39 24 23 24